GFSMW_850_dewp_021.txt.gz
Dewpoint
-0 1 -1 -3 -4 -2 1 1 -1 -3 -3 -3 -3 -3 -3 -3 -2 -2 -2 -2 -2 -1 -1 -1 -1 -2 -2 -3 -3 -4 -3 -3 -4 -4 -5 -5 -5 -5 -6 -6 -7 -7 -7
-6 -6 -6 -5 -5 -3 -1 -1 -2 -2 -2 -2 -2 -2 -3 -3 -2 -2 -1 -0 -0 -0 -0 -0 -0 -0 -1 -2 -2 -2 -2 -2 -3 -3 -2 -2 -2 -4 -5 -5 -6 -6 -6
-4 -4 -4 -4 -3 -3 -2 -2 -1 -1 -2 -2 -2 -2 -2 -1 -1 -1 0 0 -0 -0 -1 -1 -1 -1 -1 -1 -0 -1 -2 -1 -1 -2 -2 -1 -2 -2 -4 -5 -5 -5 -7
-4 -4 -3 -3 -3 -3 -3 -2 -2 -2 -2 -1 -0 0 0 0 -0 -0 -1 -1 -2 -3 -3 -3 -2 -2 -2 -2 -1 0 -1 -1 1 -0 -2 -3 -3 -2 -2 -3 -5 -6 -7
-3 -4 -4 -3 -2 -2 -2 -1 -1 -1 -0 0 0 -0 -0 -1 -3 -3 -4 -5 -7 -8 -8 -7 -4 -4 -4 -4 -3 -2 -1 -0 1 1 -0 -2 -2 -2 -3 -3 -4 -7 -8
-2 -2 -2 -1 -0 0 0 0 -0 -0 -1 -1 -1 0 1 -1 -4 -6 -7 -9 -10 -11 -9 -7 -6 -6 -5 -5 -3 -1 0 1 1 0 -1 -1 -2 -2 -3 -3 -3 -3 -2
0 0 0 0 0 0 -0 -0 -1 -1 -0 -0 0 -1 -4 -6 -6 -6 -6 -7 -7 -8 -6 -4 -4 -4 -4 -2 -1 -0 -1 -1 -1 -1 -1 -2 -1 -1 -2 -2 -2 -3 -3
1 1 1 1 1 1 1 0 -0 -0 -0 -2 -4 -7 -7 -5 -6 -7 -7 -6 -6 -6 -4 -3 -4 -3 -2 -1 -1 -1 -1 -1 -1 -1 -1 -1 -2 -2 -3 -3 -4 -4 -4
1 1 0 0 1 1 1 1 -0 -3 -4 -6 -8 -8 -6 -5 -4 -6 -7 -7 -5 -4 -3 -2 -2 -1 -1 -1 -1 -1 -1 -2 -3 -3 -3 -4 -4 -5 -5 -5 -5 -5 -6
0 -0 -0 1 1 2 3 -0 -0 0 -3 -4 -3 -2 -1 -2 -4 -6 -6 -4 -4 -3 -2 -2 -1 -2 -2 -2 -3 -6 -7 -6 -5 -6 -6 -6 -7 -9 -11 -11 -6 -7 -8
2 2 2 2 3 3 1 -4 -4 -2 0 0 -0 -0 -0 -2 -4 -6 -4 -4 -3 -2 -1 -2 -3 -2 -3 -4 -4 -5 -5 -6 -7 -8 -9 -10 -11 -12 -10 -9 -9 -9 -9
2 2 2 1 1 1 -3 -7 -6 -4 -1 0 1 0 -2 -4 -5 -6 -3 -4 -2 -2 -3 -3 -3 -3 -4 -4 -5 -6 -7 -8 -9 -10 -12 -14 -14 -11 -9 -9 -8 -8 -8
1 3 2 -0 -1 -1 -3 -4 -5 -4 -1 1 1 -1 -4 -4 -5 -3 -3 -4 -3 -3 -3 -3 -5 -7 -6 -6 -7 -8 -9 -10 -12 -14 -15 -15 -14 -11 -9 -9 -9 -9 -10
3 2 1 -0 -2 -2 -2 -2 -2 -2 0 0 -1 -2 -4 -4 -3 -3 -3 -3 -3 -4 -5 -5 -6 -7 -6 -6 -7 -9 -11 -14 -15 -15 -15 -14 -13 -11 -10 -10 -10 -10 -10
3 2 -0 -2 -2 -1 -4 -9 -10 -8 -3 -1 -3 -2 -2 -2 -3 -4 -3 -4 -5 -6 -6 -4 -4 -5 -8 -10 -11 -13 -14 -14 -16 -17 -17 -16 -17 -17 -15 -11 -9 -9 -8
1 -0 -1 -3 -2 -7 -10 -8 -6 -4 -2 -3 -2 -2 -2 -2 -2 -4 -7 -6 -6 -7 -8 -9 -10 -10 -11 -13 -13 -14 -15 -16 -17 -12 -12 -14 -13 -11 -12 -11 -11 -10 -9
-1 -3 -2 -3 -9 -10 -9 -7 -6 -5 -4 -4 -4 -3 -5 -6 -6 -6 -6 -7 -9 -10 -10 -11 -12 -13 -13 -13 -14 -15 -16 -15 -12 -12 -11 -10 -10 -10 -10 -10 -10 -9 -9
-5 -4 -2 -8 -11 -10 -8 -5 -4 -3 -4 -5 -6 -6 -6 -7 -8 -10 -12 -13 -14 -13 -12 -12 -12 -13 -14 -14 -15 -16 -16 -11 -11 -12 -10 -10 -10 -10 -10 -9 -10 -10 -9
-4 -1 -5 -8 -10 -10 -6 -4 -2 -3 -4 -4 -7 -5 -7 -8 -9 -9 -10 -13 -13 -13 -13 -13 -13 -13 -14 -14 -15 -15 -11 -11 -12 -10 -10 -10 -10 -10 -10 -10 -10 -9 -9
-1 -2 -5 -9 -10 -9 -6 -5 -4 -4 -3 -4 -5 -7 -8 -8 -8 -11 -13 -13 -12 -12 -12 -13 -13 -13 -13 -14 -15 -14 -11 -11 -11 -10 -10 -10 -10 -10 -10 -10 -10 -10 -10
-1 -3 -6 -9 -9 -6 -7 -7 -7 -6 -5 -5 -7 -7 -8 -8 -13 -13 -13 -12 -12 -11 -11 -12 -12 -13 -14 -15 -15 -14 -11 -11 -11 -10 -10 -10 -10 -10 -10 -11 -11 -10 -10
-1 -3 -7 -8 -8 -6 -6 -7 -8 -8 -7 -7 -7 -7 -9 -13 -13 -12 -11 -10 -11 -11 -11 -12 -12 -12 -13 -14 -15 -13 -12 -12 -11 -11 -11 -10 -11 -11 -11 -11 -10 -9 -9
-2 -4 -6 -8 -8 -7 -7 -8 -8 -7 -7 -7 -8 -10 -12 -12 -12 -11 -10 -10 -11 -11 -11 -11 -11 -12 -12 -12 -13 -12 -12 -12 -11 -11 -11 -11 -11 -11 -12 -10 -10 -9 -9
-3 -4 -5 -7 -8 -8 -7 -6 -7 -7 -8 -9 -11 -11 -10 -11 -11 -11 -10 -10 -10 -11 -11 -11 -12 -12 -12 -12 -12 -12 -12 -12 -12 -12 -11 -11 -11 -11 -11 -11 -10 -10 -9
-4 -4 -4 -6 -7 -7 -6 -5 -6 -8 -9 -9 -11 -10 -9 -9 -10 -10 -10 -11 -10 -11 -12 -12 -12 -13 -13 -13 -13 -13 -12 -12 -12 -12 -12 -11 -12 -12 -12 -11 -11 -10 -10
-8 -5 -3 -4 -6 -7 -9 -10 -9 -10 -10 -11 -10 -9 -8 -9 -10 -11 -11 -11 -12 -12 -13 -14 -14 -13 -14 -13 -13 -13 -13 -13 -12 -12 -12 -12 -12 -12 -12 -12 -12 -11 -11

GFSMW_850_dewp_024.txt.gz
Dewpoint
0 1 3 2 -1 -2 1 6 7 6 2 2 2 3 2 1 0 0 -0 -1 -0 0 0 -0 -0 0 4 4 4 4 5 5 4 2 1 -0 -0 1 -0 -1 -1 -2 -1
-1 -1 1 -3 -2 -1 1 2 2 1 1 0 -1 -2 -2 -1 -0 1 3 3 0 -0 -1 -1 -1 2 3 4 4 5 5 4 4 3 1 -0 -1 -0 1 0 -1 -1 -1
-2 -1 -0 -1 -2 -2 -1 -0 -0 -1 -1 -2 1 2 2 2 1 1 1 -1 -2 -5 -6 -7 -7 -6 -3 2 3 3 4 4 4 3 3 1 -0 -1 -1 1 0 -1 -0
-2 -1 0 -1 -2 -2 -2 -2 -1 -0 -0 -0 0 -1 1 1 2 2 2 0 -3 -5 -5 -4 -3 -4 -0 1 2 2 3 3 3 3 3 3 2 1 -0 -0 0 0 -0
1 0 1 2 2 -0 0 0 2 0 -0 -1 1 3 3 2 2 2 1 -0 -1 -2 -2 -1 -11 -10 -4 -1 -0 2 3 3 3 3 3 3 3 2 2 0 -1 0 -1
1 1 2 2 2 3 2 2 2 2 -0 -1 -1 -1 -3 -2 -1 -1 -2 -3 -4 -4 -3 -2 -7 -6 -4 -3 -3 -0 1 1 2 2 2 2 1 1 1 1 0 -0 -1
2 2 2 2 3 3 3 2 2 2 1 0 -1 -1 -3 -2 -2 -2 -2 -2 -3 -3 -2 -3 -1 0 -0 -1 -1 -1 -1 -0 -0 -0 -0 0 -0 -0 -0 -0 -1 -1 -0
2 2 2 2 3 3 3 3 3 2 1 -0 -1 -7 -11 -4 -2 -1 -1 -2 -2 -2 -1 0 0 0 -0 0 -0 -1 -1 -1 -1 -1 -2 -2 -2 -3 -3 -3 -3 -3 -3
2 1 2 2 3 3 3 3 2 1 1 -0 -1 -1 0 0 1 -0 -2 -3 -3 -2 -0 -0 0 -0 -1 -1 -1 -2 -2 -5 -5 -4 -4 -4 -4 -4 -5 -5 -4 -4 -4
2 2 2 2 2 2 2 2 1 1 1 1 2 1 2 1 0 -1 -3 -2 -2 -0 -0 -1 -1 -1 -2 -2 -3 -3 -2 -3 -3 -4 -4 -4 -4 -4 -4 -5 -4 -5 -6
2 2 2 2 2 2 1 -0 1 1 2 2 1 1 1 1 -1 -2 -2 -1 -1 -1 -1 -2 -2 -2 -3 -4 -4 -4 -4 -4 -4 -4 -5 -6 -7 -9 -9 -9 -9 -9 -10
1 1 2 2 0 -0 -1 0 1 0 -0 -1 -1 -0 -0 -0 -2 -2 -2 -2 -2 -2 -3 -2 -3 -4 -4 -4 -4 -4 -5 -6 -7 -7 -8 -9 -11 -10 -10 -10 -9 -10 -10
0 1 1 1 -0 -2 -1 -1 -3 -4 -4 -3 -2 -1 -1 -2 -1 -1 -3 -4 -4 -4 -4 -3 -3 -4 -5 -6 -6 -7 -7 -7 -8 -9 -9 -9 -9 -9 -9 -9 -10 -10 -11
1 1 1 0 -2 -1 -3 -6 -5 -4 -3 -2 -2 -2 -1 -2 -2 -2 -4 -3 -3 -3 -3 -4 -4 -5 -4 -6 -7 -8 -8 -8 -9 -9 -9 -9 -8 -9 -9 -10 -10 -11 -11
1 2 0 -2 -2 -4 -6 -5 -4 -3 -2 -2 -3 -2 -1 -2 -2 -2 -3 -3 -3 -4 -4 -6 -7 -7 -8 -10 -11 -12 -10 -10 -10 -10 -9 -9 -9 -10 -13 -11 -10 -10 -10
2 1 -2 -2 -3 -5 -5 -4 -3 -2 -2 -3 -3 -2 -2 -3 -3 -3 -4 -6 -7 -8 -8 -9 -8 -9 -9 -9 -12 -14 -12 -11 -10 -9 -9 -10 -10 -10 -9 -9 -9 -9 -9
1 -2 -2 -2 -4 -4 -5 -4 -3 -3 -3 -3 -4 -4 -5 -5 -6 -7 -8 -8 -8 -9 -9 -9 -9 -9 -9 -9 -13 -15 -15 -10 -9 -9 -10 -10 -11 -10 -9 -9 -9 -9 -9
-2 -3 -2 -3 -4 -5 -6 -4 -4 -3 -3 -4 -4 -5 -5 -6 -7 -7 -7 -8 -9 -9 -9 -9 -9 -9 -10 -10 -13 -14 -13 -9 -9 -9 -10 -10 -9 -9 -9 -10 -9 -9 -9
-2 -1 -2 -3 -3 -5 -6 -5 -5 -5 -4 -4 -4 -4 -5 -7 -7 -7 -9 -9 -9 -9 -9 -9 -9 -9 -9 -9 -14 -15 -10 -9 -10 -10 -9 -9 -9 -10 -10 -10 -10 -9 -8
-3 -2 -2 -3 -4 -6 -5 -6 -7 -7 -6 -6 -6 -6 -6 -7 -7 -9 -9 -9 -10 -10 -9 -8 -9 -9 -9 -10 -12 -12 -11 -11 -10 -10 -10 -10 -10 -10 -10 -10 -9 -9 -9
-3 -3 -3 -3 -4 -4 -5 -6 -7 -8 -8 -7 -6 -7 -6 -7 -10 -9 -10 -10 -9 -8 -9 -9 -10 -10 -10 -11 -11 -12 -12 -11 -11 -10 -10 -9 -9 -10 -10 -11 -10 -10 -10
-9 -5 -3 -4 -5 -4 -5 -6 -7 -7 -7 -6 -6 -7 -7 -9 -9 -9 -9 -9 -9 -9 -9 -10 -10 -10 -11 -11 -11 -13 -12 -12 -12 -11 -10 -10 -11 -11 -11 -11 -11 -11 -10
-5 -4 -5 -5 -4 -4 -4 -5 -6 -6 -6 -6 -7 -7 -8 -8 -8 -8 -9 -9 -9 -9 -10 -10 -10 -10 -11 -11 -12 -13 -12 -12 -12 -11 -11 -11 -11 -11 -11 -11 -11 -10 -10
-7 -7 -7 -6 -6 -5 -4 -4 -4 -5 -7 -7 -7 -8 -8 -8 -8 -8 -9 -9 -9 -10 -10 -10 -11 -11 -11 -12 -12 -12 -12 -12 -12 -12 -12 -12 -12 -12 -12 -12 -11 -11 -10
-8 -7 -6 -6 -5 -5 -4 -5 -5 -6 -7 -7 -7 -8 -8 -7 -7 -8 -9 -9 -10 -11 -11 -11 -12 -12 -12 -12 -13 -13 -13 -13 -12 -12 -12 -12 -12 -12 -12 -12 -11 -11 -11
-7 -6 -6 -6 -6 -6 -5 -5 -6 -7 -7 -7 -7 -7 -8 -7 -8 -8 -9 -9 -10 -12 -14 -15 -15 -13 -13 -14 -14 -13 -13 -13 -13 -12 -13 -13 -13 -13 -12 -12 -12 -12 -12

GFSMW_850_dewp_030.txt.gz
Dewpoint
3 4 4 4 4 4 6 7 8 8 9 7 6 5 3 3 3 2 2 3 3 3 2 2 2 2 2 2 2 2 1 2 3 5 5 5 4 5 5 4 2 0 0
2 3 4 3 3 4 4 4 5 5 3 3 3 2 2 2 2 2 3 3 3 3 3 3 2 2 1 0 -1 -0 2 2 3 4 4 5 4 4 3 3 3 2 1
2 3 4 5 4 4 3 3 3 3 2 1 3 3 2 2 2 3 2 3 4 3 2 1 -1 -1 -1 0 1 -3 -2 1 2 2 3 4 3 3 3 3 3 4 3
1 3 4 5 5 5 4 4 3 3 3 1 2 3 3 4 4 3 2 2 2 -1 -1 -2 -2 -2 -2 -1 -1 1 1 1 1 2 2 2 3 4 3 2 2 2 3
2 2 3 4 5 5 5 4 3 3 3 3 3 3 3 3 2 1 0 -0 -1 -1 -1 -1 -2 -2 -3 -2 1 2 2 2 3 3 2 1 -0 1 2 2 2 1 2
2 2 2 2 4 4 4 4 3 3 3 3 3 2 2 2 1 0 0 1 1 0 -1 -3 -4 -2 -0 0 1 1 -1 -1 -1 -0 -2 -2 -1 -1 -1 -0 0 0 1
2 1 2 2 3 3 4 4 4 3 2 1 1 2 2 2 1 1 2 2 1 -1 -2 -2 -1 -0 0 -1 -1 -2 -2 -1 -1 -2 -3 -2 -1 -2 -2 -2 -2 -2 -2
1 1 1 2 3 2 2 2 3 3 1 1 1 2 2 2 2 1 1 1 -0 -1 -1 -1 -0 -1 -2 -2 -1 -1 -1 -3 -2 -3 -3 -3 -3 -3 -3 -3 -3 -4 -4
1 1 1 1 1 1 1 2 2 1 0 1 1 1 0 1 0 -0 -0 -1 -2 -2 -1 -2 -3 -2 -2 -1 -3 -3 -5 -4 -2 -2 -2 -2 -3 -2 -3 -5 -5 -4 -4
0 1 1 1 1 1 1 1 0 0 1 -0 -2 -3 -4 -3 -2 -2 -2 -2 -2 -3 -3 -3 -3 -4 -5 -4 -4 -5 -3 -4 -4 -6 -7 -6 -6 -5 -5 -5 -4 -4 -4
1 0 -0 0 1 1 1 -0 -1 -0 -3 -5 -5 -6 -5 -3 -2 -2 -2 -2 -3 -4 -3 -2 -3 -3 -3 -3 -3 -3 -5 -4 -5 -5 -5 -5 -6 -7 -8 -8 -9 -7 -6
-0 -0 0 1 1 1 -0 -1 -1 -5 -6 -6 -5 -4 -3 -3 -2 -2 -2 -3 -2 -2 -2 -3 -3 -3 -4 -5 -5 -6 -6 -7 -6 -6 -8 -9 -9 -9 -9 -9 -9 -9 -9
-1 -0 0 1 1 0 -1 -2 -4 -6 -6 -5 -4 -4 -4 -3 -3 -4 -1 -4 -4 -3 -4 -4 -5 -5 -6 -7 -8 -9 -9 -8 -8 -10 -11 -10 -9 -9 -9 -9 -8 -8 -9
0 1 1 1 1 -1 -2 -3 -5 -6 -6 -5 -4 -4 -4 -3 -5 -3 -4 -4 -5 -4 -5 -6 -7 -7 -9 -9 -9 -10 -9 -9 -10 -11 -13 -10 -10 -10 -9 -9 -9 -9 -8
2 2 2 0 -1 -1 -2 -4 -5 -6 -6 -5 -4 -4 -4 -3 -5 -5 -4 -4 -5 -5 -6 -7 -9 -10 -10 -10 -10 -10 -10 -9 -10 -11 -13 -11 -10 -9 -9 -9 -9 -9 -10
3 2 -0 -1 -1 -1 -3 -4 -5 -7 -7 -7 -6 -5 -5 -5 -4 -4 -5 -5 -6 -6 -8 -10 -10 -10 -10 -9 -10 -10 -9 -10 -10 -11 -12 -9 -8 -9 -9 -8 -8 -9 -9
2 1 -0 -1 -1 -1 -4 -5 -5 -6 -7 -8 -7 -7 -4 -5 -6 -6 -5 -6 -7 -9 -10 -10 -10 -9 -9 -9 -9 -9 -8 -9 -10 -10 -9 -9 -9 -9 -9 -9 -9 -9 -9
0 -0 -1 -1 -1 -4 -5 -5 -5 -6 -6 -7 -8 -9 -6 -6 -6 -5 -7 -7 -9 -10 -10 -10 -10 -10 -10 -10 -9 -9 -10 -11 -12 -11 -11 -11 -11 -11 -11 -11 -11 -11 -9
-0 -1 -2 -5 -7 -8 -6 -4 -5 -6 -6 -6 -8 -7 -7 -6 -6 -7 -7 -8 -10 -10 -11 -10 -10 -10 -10 -11 -10 -9 -11 -12 -13 -13 -12 -11 -12 -12 -11 -10 -10 -11 -11
-3 -6 -7 -8 -8 -8 -9 -9 -8 -8 -8 -6 -5 -5 -4 -5 -6 -5 -6 -10 -10 -10 -10 -10 -9 -10 -11 -10 -10 -11 -10 -10 -11 -13 -13 -13 -12 -11 -10 -10 -10 -10 -10
-7 -9 -10 -11 -11 -11 -10 -10 -10 -10 -7 -7 -3 -5 -4 -4 -6 -6 -9 -10 -10 -10 -9 -9 -10 -11 -10 -10 -11 -10 -10 -11 -12 -13 -12 -12 -11 -10 -10 -11 -11 -11 -11
-11 -12 -13 -12 -12 -11 -11 -10 -10 -10 -9 -6 -5 -4 -4 -5 -6 -8 -9 -10 -10 -9 -9 -9 -11 -11 -10 -10 -11 -10 -11 -12 -13 -12 -12 -12 -12 -11 -11 -11 -11 -11 -11
-13 -13 -13 -13 -12 -11 -10 -10 -10 -9 -7 -5 -4 -4 -4 -5 -6 -7 -9 -10 -9 -9 -9 -10 -10 -10 -11 -12 -11 -12 -13 -14 -13 -13 -12 -12 -11 -11 -11 -11 -11 -11 -11
-11 -11 -11 -11 -11 -10 -10 -10 -9 -8 -9 -5 -4 -5 -6 -6 -7 -8 -9 -9 -9 -10 -10 -9 -10 -12 -13 -13 -14 -16 -14 -13 -13 -13 -12 -12 -12 -12 -12 -11 -11 -11 -10
-11 -11 -10 -10 -10 -10 -9 -8 -7 -6 -6 -6 -5 -6 -6 -6 -7 -7 -9 -8 -9 -9 -9 -10 -11 -11 -12 -13 -13 -13 -14 -14 -13 -13 -12 -12 -13 -13 -13 -12 -12 -11 -11
-9 -9 -9 -8 -8 -7 -6 -7 -5 -5 -6 -6 -6 -6 -6 -7 -8 -9 -9 -9 -9 -9 -9 -11 -11 -11 -12 -12 -14 -14 -14 -14 -13 -13 -13 -13 -13 -13 -13 -13 -13 -13 -12

GFSMW_850_dewp_036.txt.gz
Dewpoint
6 7 7 7 7 8 9 9 10 10 9 9 9 7 4 2 2 3 4 3 3 4 4 4 3 3 3 1 -0 -1 -3 -4 -5 -8 -13 -14 -13 -6 -4 -3 2 2 3
4 5 5 6 6 6 6 5 3 3 3 3 3 4 4 3 4 4 4 3 3 3 3 3 2 1 -0 -1 -1 -2 -3 -6 -9 -6 -1 -0 -2 -2 -1 -2 -1 1 1
2 2 2 3 3 2 2 1 2 2 2 2 2 2 2 2 2 2 2 2 1 0 0 -0 -1 -1 -1 -1 -2 -5 -10 -7 -1 1 0 -0 -0 -2 -3 -3 -3 -1 -0
2 2 2 1 1 1 1 0 1 2 2 2 1 -1 -2 -0 1 1 1 1 1 0 0 0 0 0 -2 -9 -7 -3 0 -0 -1 -2 -2 -3 -3 -2 -3 -3 -3 -5 -6
3 2 2 2 2 2 2 2 2 2 3 2 2 1 1 1 2 1 1 1 1 1 1 0 -1 -5 -8 -7 -4 -3 -2 -3 -3 -2 -2 -3 -4 -5 -4 -4 -3 -6 -7
2 2 3 3 3 3 3 3 3 3 2 2 2 0 0 -0 1 2 2 2 1 0 -0 -1 -3 -3 -4 -6 -6 -4 -2 -3 -3 -4 -5 -5 -4 -3 -3 -3 -3 -3 -5
2 2 3 3 3 3 3 3 2 2 1 1 0 0 1 1 1 -0 -1 -1 -2 -2 -2 -2 -2 -2 -4 -5 -5 -5 -4 -4 -6 -6 -6 -5 -3 -3 -4 -3 -4 -4 -4
2 2 2 2 3 3 2 2 1 1 1 1 1 1 0 -1 -3 -4 -6 -4 -2 -2 -2 -2 -2 -4 -4 -4 -5 -5 -5 -6 -6 -6 -6 -6 -6 -5 -5 -3 -4 -4 -4
1 1 2 2 2 2 1 1 1 1 1 0 -0 -0 -2 -5 -6 -9 -7 -3 -3 -2 -6 -6 -4 -3 -3 -3 -4 -4 -5 -5 -5 -5 -5 -5 -5 -5 -5 -5 -5 -5 -4
2 2 1 1 1 1 1 0 -0 -0 -0 -0 -1 -4 -5 -7 -9 -9 -5 -4 -4 -4 -9 -4 -3 -4 -4 -4 -4 -4 -4 -5 -5 -5 -5 -5 -5 -5 -7 -7 -8 -7 -7
1 1 1 1 1 0 0 -0 -1 -1 -1 -3 -4 -4 -6 -9 -11 -10 -7 -5 -4 -4 -11 -7 -5 -4 -5 -6 -6 -7 -7 -8 -8 -8 -7 -6 -6 -7 -8 -8 -12 -13 -10
1 1 1 1 1 0 -0 -1 -1 -2 -3 -3 -5 -6 -8 -9 -9 -9 -9 -5 -4 -5 -11 -8 -7 -6 -6 -7 -8 -9 -10 -9 -9 -8 -8 -9 -10 -10 -11 -12 -14 -16 -12
2 1 1 -0 -1 -0 -1 -1 -2 -3 -4 -4 -5 -6 -7 -7 -7 -5 -5 -4 -5 -10 -8 -8 -6 -6 -8 -9 -10 -10 -9 -9 -10 -10 -10 -10 -11 -11 -12 -13 -13 -13 -11
1 1 0 -1 -3 -4 -4 -2 -2 -3 -4 -5 -5 -5 -6 -6 -6 -5 -5 -4 -5 -8 -6 -6 -6 -6 -7 -10 -10 -10 -10 -10 -10 -12 -13 -12 -12 -13 -12 -9 -8 -8 -8
-0 -1 -2 -3 -4 -6 -8 -7 -6 -4 -3 -5 -4 -4 -4 -5 -5 -4 -4 -3 -3 -6 -5 -5 -7 -8 -10 -10 -10 -10 -10 -11 -12 -13 -12 -13 -14 -15 -11 -9 -9 -9 -9
-2 -4 -5 -6 -7 -6 -4 -3 -4 -5 -6 -7 -7 -5 -6 -5 -5 -4 -4 -4 -4 -5 -6 -7 -8 -10 -11 -10 -10 -10 -10 -12 -12 -12 -12 -13 -13 -14 -13 -12 -12 -11 -10
-5 -6 -6 -6 -6 -6 -7 -9 -11 -11 -11 -11 -9 -9 -9 -8 -5 -5 -4 -4 -3 -5 -7 -6 -10 -10 -10 -10 -9 -11 -12 -12 -12 -12 -12 -12 -12 -13 -15 -13 -13 -13 -12
-6 -6 -6 -10 -12 -12 -12 -12 -12 -13 -11 -10 -10 -9 -9 -8 -9 -8 -8 -4 -5 -5 -6 -10 -10 -10 -9 -9 -11 -12 -11 -11 -12 -12 -13 -13 -13 -15 -13 -12 -11 -11 -11
-7 -11 -12 -13 -13 -13 -13 -13 -13 -13 -11 -10 -10 -9 -9 -9 -10 -6 -4 -7 -6 -9 -10 -9 -9 -9 -9 -11 -12 -12 -13 -13 -12 -12 -13 -15 -14 -12 -12 -11 -11 -12 -12
-11 -12 -11 -11 -11 -11 -11 -12 -12 -10 -10 -9 -9 -8 -8 -10 -7 -4 -5 -8 -8 -7 -8 -8 -9 -9 -11 -12 -13 -15 -15 -17 -18 -17 -16 -14 -13 -12 -12 -11 -11 -11 -12
-11 -11 -11 -11 -11 -11 -12 -10 -9 -8 -8 -8 -8 -8 -9 -8 -4 -5 -7 -8 -7 -7 -9 -9 -9 -11 -11 -12 -14 -14 -16 -16 -13 -14 -14 -13 -12 -12 -11 -12 -12 -11 -11
-11 -11 -12 -12 -12 -12 -10 -9 -8 -7 -7 -7 -6 -8 -8 -7 -7 -5 -5 -6 -7 -9 -9 -9 -10 -11 -11 -12 -13 -14 -17 -14 -14 -14 -13 -12 -12 -12 -13 -12 -11 -11 -11
-11 -12 -12 -13 -16 -13 -11 -11 -10 -6 -5 -6 -5 -5 -7 -7 -6 -6 -6 -7 -7 -8 -9 -9 -11 -11 -12 -12 -13 -15 -15 -15 -14 -13 -13 -13 -13 -13 -13 -13 -12 -12 -11
-12 -11 -14 -16 -13 -12 -11 -10 -8 -5 -4 -5 -4 -5 -7 -6 -6 -6 -7 -7 -8 -8 -9 -11 -11 -11 -12 -12 -13 -13 -13 -14 -14 -13 -14 -14 -13 -13 -13 -13 -13 -13 -12
-11 -15 -15 -14 -13 -12 -11 -10 -8 -6 -5 -5 -5 -6 -7 -7 -7 -7 -8 -9 -9 -9 -10 -11 -11 -11 -12 -12 -12 -12 -13 -14 -14 -14 -14 -14 -14 -14 -14 -14 -13 -13 -13
-15 -15 -14 -14 -12 -11 -10 -8 -6 -6 -6 -6 -6 -7 -7 -7 -8 -8 -8 -8 -9 -10 -10 -10 -10 -11 -12 -12 -12 -12 -13 -15 -15 -15 -15 -15 -15 -15 -15 -15 -14 -14 -14

GFSMW_850_dewp_039.txt.gz
Dewpoint
8 9 8 7 7 9 9 8 9 9 8 8 8 8 7 5 3 3 3 3 4 4 4 4 3 3 2 0 -1 -1 -1 -2 -2 -4 -9 -16 -17 -8 -6 -6 -3 1 1
6 6 7 8 8 8 7 4 3 3 4 4 4 4 3 3 3 3 3 4 3 2 1 0 -0 -0 -0 -0 -0 -1 -4 -7 -9 -7 -5 -5 -8 -8 -3 -7 -9 -7 -6
5 6 6 5 4 3 2 1 1 1 1 2 2 1 -0 -3 -3 -2 -3 -1 0 1 1 1 1 1 0 -1 -7 -12 -12 -11 -8 -3 -2 -2 -3 -3 -4 -5 -5 -5 -6
3 2 1 1 1 1 1 1 1 1 0 -3 -3 -3 -3 -3 -2 -1 -1 1 1 1 2 1 1 -1 -2 -5 -8 -8 -10 -7 -4 -4 -4 -2 -2 -2 -3 -4 -5 -7 -8
2 1 2 2 3 2 2 1 1 0 -0 -1 -0 0 -0 -0 -0 0 1 2 2 1 -0 -1 -2 -3 -3 -3 -3 -7 -6 -2 -2 -2 -3 -4 -5 -5 -3 -3 -3 -5 -7
3 3 3 2 2 3 2 3 3 2 1 1 1 0 0 0 1 1 1 -0 -2 -3 -3 -3 -3 -2 -3 -3 -5 -6 -6 -5 -4 -5 -5 -5 -4 -3 -4 -3 -5 -4 -5
3 2 2 2 2 3 4 3 2 2 1 1 1 1 0 0 -1 -3 -4 -6 -7 -5 -3 -3 -4 -9 -8 -6 -5 -5 -5 -5 -6 -6 -6 -6 -5 -4 -4 -4 -4 -5 -6
2 3 2 2 3 4 3 2 2 1 1 1 0 -0 -0 -2 -4 -6 -9 -11 -6 -4 -4 -5 -8 -9 -5 -5 -4 -4 -4 -4 -5 -5 -5 -5 -5 -4 -5 -4 -4 -5 -4
3 3 3 4 3 2 2 1 1 1 0 -0 -0 -1 -4 -4 -5 -10 -12 -11 -9 -6 -4 -4 -10 -5 -3 -3 -3 -4 -5 -5 -5 -6 -6 -6 -5 -4 -5 -6 -6 -6 -6
2 2 3 2 2 1 1 1 0 -0 -1 -1 -3 -4 -6 -7 -7 -9 -9 -8 -8 -6 -5 -4 -9 -10 -5 -4 -5 -6 -7 -8 -8 -8 -8 -8 -7 -6 -6 -7 -7 -8 -9
2 2 1 2 2 1 1 -0 -1 -1 -2 -3 -3 -5 -5 -5 -6 -7 -7 -6 -5 -4 -4 -5 -11 -10 -7 -6 -7 -7 -9 -10 -10 -10 -9 -8 -8 -7 -7 -9 -9 -11 -12
1 2 1 1 1 1 -0 -1 -2 -3 -3 -4 -4 -5 -5 -5 -6 -6 -6 -5 -4 -4 -5 -8 -6 -6 -6 -7 -8 -9 -10 -10 -9 -9 -9 -9 -10 -11 -13 -13 -13 -12 -13
2 1 0 -0 -1 -3 -4 -4 -2 -3 -3 -4 -4 -5 -4 -6 -5 -5 -5 -4 -3 -4 -4 -4 -7 -5 -6 -7 -8 -10 -10 -10 -10 -10 -11 -12 -13 -14 -14 -14 -14 -12 -10
1 -1 -2 -4 -5 -7 -7 -5 -4 -3 -3 -3 -4 -5 -6 -4 -6 -5 -5 -7 -4 -5 -4 -4 -4 -5 -6 -9 -10 -11 -11 -10 -10 -11 -12 -13 -13 -13 -14 -15 -12 -9 -9
-2 -4 -5 -6 -5 -5 -5 -5 -5 -7 -8 -11 -12 -12 -12 -10 -7 -9 -8 -6 -6 -4 -4 -4 -5 -7 -8 -9 -11 -10 -9 -10 -12 -13 -12 -13 -13 -13 -13 -13 -14 -13 -12
-5 -7 -6 -5 -6 -8 -9 -10 -11 -12 -13 -13 -14 -12 -10 -10 -10 -9 -8 -8 -7 -4 -3 -4 -7 -6 -8 -10 -10 -9 -10 -12 -12 -12 -13 -13 -12 -13 -12 -13 -15 -14 -11
-6 -5 -5 -8 -12 -12 -12 -13 -13 -12 -12 -12 -10 -10 -9 -9 -9 -9 -10 -7 -5 -5 -5 -6 -6 -7 -9 -9 -9 -10 -11 -11 -11 -12 -13 -13 -13 -13 -14 -16 -14 -13 -12
-4 -6 -10 -12 -12 -12 -12 -11 -11 -11 -11 -10 -9 -9 -9 -8 -9 -11 -7 -4 -4 -5 -6 -9 -9 -9 -9 -9 -10 -12 -13 -14 -15 -17 -18 -17 -16 -15 -12 -12 -12 -12 -12
-8 -12 -12 -11 -11 -11 -11 -11 -11 -9 -9 -9 -9 -8 -8 -7 -10 -11 -5 -5 -6 -7 -8 -8 -8 -8 -9 -11 -12 -13 -14 -15 -19 -20 -16 -15 -14 -13 -12 -12 -11 -11 -12
-11 -11 -11 -11 -11 -12 -12 -13 -14 -12 -12 -9 -7 -7 -6 -7 -8 -9 -6 -7 -7 -7 -7 -7 -8 -9 -10 -11 -12 -13 -14 -17 -18 -16 -15 -13 -12 -12 -12 -12 -12 -12 -12
-11 -11 -11 -12 -13 -14 -16 -18 -18 -16 -14 -7 -6 -6 -5 -5 -7 -8 -6 -7 -7 -6 -7 -8 -9 -10 -11 -11 -12 -13 -15 -17 -15 -14 -14 -13 -13 -12 -12 -12 -12 -12 -11
-10 -11 -12 -14 -15 -19 -19 -17 -16 -14 -11 -6 -5 -5 -5 -5 -6 -6 -6 -6 -7 -8 -8 -8 -9 -10 -11 -11 -12 -13 -14 -15 -15 -14 -14 -13 -13 -13 -13 -13 -12 -12 -12
-11 -11 -13 -15 -19 -18 -16 -15 -13 -11 -9 -6 -5 -5 -5 -6 -6 -6 -6 -7 -7 -8 -8 -9 -10 -11 -11 -12 -12 -13 -14 -14 -15 -14 -14 -14 -14 -14 -14 -13 -13 -13 -12
-11 -12 -15 -18 -17 -16 -14 -12 -11 -9 -8 -7 -7 -6 -6 -7 -7 -7 -7 -8 -8 -8 -9 -10 -11 -11 -11 -12 -12 -13 -13 -15 -16 -15 -15 -15 -15 -14 -14 -14 -13 -13 -13
-11 -15 -17 -15 -15 -14 -12 -11 -10 -9 -8 -7 -7 -6 -8 -7 -7 -8 -8 -8 -9 -9 -10 -10 -11 -11 -11 -12 -12 -12 -13 -16 -16 -17 -17 -16 -16 -15 -15 -15 -14 -14 -14
-15 -15 -15 -14 -13 -12 -12 -11 -10 -8 -7 -7 -7 -7 -8 -8 -8 -9 -9 -9 -9 -10 -9 -10 -11 -11 -12 -12 -12 -13 -15 -17 -16 -22 -28 -18 -16 -16 -19 -19 -18 -16 -16

GFSMW_850_dewp_042.txt.gz
Dewpoint
7 6 7 6 7 8 9 10 10 9 9 9 8 5 6 5 2 0 -0 1 3 3 3 2 1 0 0 0 0 0 -2 -6 -11 -16 -15 -17 -10 -3 -6 -7 -5 -5 -8
9 9 10 10 10 10 10 8 4 5 5 5 5 3 2 -1 -3 -3 -3 -2 -2 -2 -1 1 1 1 1 1 -2 -5 -9 -12 -15 -14 -13 -7 -9 -8 -5 -4 -9 -8 -10
6 7 7 6 5 2 -0 -0 -0 1 1 -0 -1 -3 -3 -3 -1 -1 -1 -1 -1 0 1 2 2 1 -2 -4 -6 -7 -9 -10 -13 -10 -5 -3 -3 -4 -6 -6 -5 -5 -7
5 5 2 0 -0 -0 0 0 -1 -1 -3 -3 -2 -2 -1 -0 0 0 0 1 1 1 1 -1 -3 -4 -5 -5 -7 -11 -11 -11 -10 -8 -6 -4 -2 -2 -2 -4 -6 -8 -8
2 2 1 2 1 1 2 2 2 1 0 0 1 0 0 0 1 1 1 1 -1 -2 -4 -5 -5 -5 -5 -9 -12 -9 -7 -6 -6 -5 -5 -5 -6 -5 -3 -4 -4 -4 -7
2 2 2 2 2 3 3 3 3 3 2 2 1 1 1 0 0 -0 -2 -5 -7 -8 -8 -6 -6 -6 -8 -14 -9 -7 -6 -5 -5 -6 -6 -6 -5 -5 -5 -5 -5 -5 -6
3 3 3 3 3 4 4 3 3 3 2 1 1 0 -0 -1 -3 -5 -7 -12 -11 -11 -9 -8 -7 -6 -6 -14 -10 -8 -7 -6 -4 -4 -5 -5 -5 -4 -4 -4 -5 -5 -5
3 3 4 4 4 4 4 3 2 2 1 1 -0 -1 -3 -5 -7 -8 -8 -10 -9 -8 -8 -7 -6 -6 -6 -11 -6 -5 -5 -5 -5 -5 -5 -5 -6 -6 -6 -4 -4 -5 -7
3 4 4 4 4 4 2 2 1 0 -0 -1 -2 -3 -5 -5 -6 -6 -7 -7 -6 -6 -5 -5 -4 -6 -7 -5 -3 -5 -6 -6 -7 -8 -9 -9 -9 -7 -7 -5 -6 -7 -7
3 2 3 3 2 1 1 1 -0 -1 -2 -3 -3 -3 -5 -5 -5 -5 -6 -5 -5 -5 -4 -4 -6 -6 -8 -5 -5 -6 -7 -8 -9 -9 -10 -10 -9 -8 -7 -7 -6 -7 -9
2 2 2 2 1 0 1 0 -0 -2 -2 -2 -4 -4 -4 -5 -5 -6 -6 -5 -5 -4 -3 -4 -5 -5 -6 -6 -6 -6 -8 -9 -10 -10 -9 -9 -9 -9 -10 -11 -11 -12 -12
1 1 1 1 1 -0 -2 -4 -4 -3 -3 -4 -4 -4 -3 -4 -5 -5 -5 -5 -5 -6 -3 -4 -4 -4 -4 -6 -5 -8 -9 -10 -10 -10 -10 -10 -10 -11 -13 -13 -14 -14 -14
1 1 0 -1 -3 -5 -6 -6 -7 -6 -5 -4 -4 -6 -10 -14 -12 -7 -7 -9 -8 -6 -5 -4 -4 -3 -4 -5 -6 -8 -10 -10 -10 -10 -10 -11 -13 -13 -13 -13 -14 -14 -14
0 -1 -3 -5 -6 -6 -7 -6 -5 -6 -7 -10 -12 -14 -14 -13 -11 -11 -11 -11 -10 -8 -6 -4 -4 -3 -5 -5 -8 -8 -10 -10 -10 -10 -12 -13 -13 -13 -12 -11 -11 -12 -12
-2 -5 -6 -6 -6 -6 -7 -8 -10 -12 -13 -12 -14 -13 -11 -10 -10 -10 -10 -11 -9 -6 -5 -3 -4 -4 -5 -7 -7 -8 -9 -9 -10 -12 -13 -12 -12 -11 -11 -11 -11 -11 -12
-5 -6 -6 -5 -7 -10 -12 -12 -12 -12 -12 -14 -13 -11 -10 -9 -9 -8 -9 -11 -8 -4 -4 -6 -5 -6 -6 -7 -8 -9 -9 -10 -13 -13 -14 -15 -16 -15 -14 -13 -14 -12 -12
-6 -5 -5 -8 -12 -12 -12 -12 -11 -13 -15 -14 -11 -10 -9 -8 -8 -7 -10 -11 -6 -4 -5 -7 -7 -8 -9 -8 -8 -9 -11 -13 -13 -15 -17 -19 -18 -16 -15 -14 -13 -13 -13
-5 -5 -8 -12 -12 -12 -11 -12 -14 -15 -16 -15 -13 -9 -8 -7 -6 -7 -8 -9 -6 -8 -8 -8 -9 -8 -8 -7 -9 -11 -12 -13 -15 -18 -18 -16 -15 -14 -13 -12 -12 -12 -12
-5 -9 -12 -11 -11 -11 -13 -15 -18 -19 -18 -17 -15 -9 -7 -6 -6 -6 -7 -7 -7 -8 -8 -7 -7 -7 -8 -9 -11 -12 -13 -15 -16 -18 -16 -15 -13 -13 -12 -12 -12 -13 -13
-8 -11 -11 -11 -11 -13 -16 -18 -19 -18 -18 -17 -15 -11 -6 -5 -6 -5 -6 -7 -6 -6 -7 -7 -7 -8 -9 -10 -11 -12 -13 -14 -16 -17 -16 -14 -13 -12 -13 -12 -12 -13 -12
-11 -11 -11 -11 -13 -16 -18 -18 -18 -18 -18 -16 -14 -9 -6 -6 -5 -6 -6 -6 -6 -6 -7 -8 -8 -8 -10 -11 -11 -12 -13 -14 -16 -16 -15 -14 -13 -13 -13 -13 -13 -13 -13
-10 -11 -11 -12 -15 -17 -17 -18 -18 -18 -17 -15 -12 -8 -6 -6 -6 -7 -6 -7 -6 -7 -8 -8 -9 -9 -11 -11 -12 -12 -13 -14 -16 -16 -16 -15 -14 -14 -14 -13 -13 -13 -13
-10 -11 -11 -14 -17 -17 -17 -17 -16 -16 -15 -13 -10 -10 -8 -7 -7 -7 -7 -7 -7 -8 -8 -9 -10 -11 -11 -11 -12 -12 -13 -16 -17 -16 -17 -17 -15 -15 -15 -14 -14 -13 -13
-10 -11 -13 -17 -17 -16 -15 -15 -14 -13 -12 -10 -8 -8 -7 -7 -8 -7 -7 -8 -8 -9 -9 -9 -10 -11 -11 -11 -12 -12 -14 -17 -18 -17 -23 -22 -16 -16 -15 -16 -14 -14 -14
-11 -13 -16 -16 -15 -14 -14 -12 -12 -11 -10 -9 -8 -8 -8 -8 -9 -8 -8 -9 -9 -9 -10 -10 -10 -11 -11 -12 -12 -12 -14 -15 -19 -17 -25 -31 -20 -17 -19 -22 -20 -19 -18
-15 -16 -15 -14 -14 -13 -12 -11 -10 -9 -7 -8 -8 -8 -8 -9 -9 -9 -9 -10 -10 -10 -10 -10 -11 -11 -11 -12 -12 -13 -14 -15 -18 -17 -22 -33 -28 -26 -23 -25 -25 -29 -27

GFSMW_850_dewp_045.txt.gz
Dewpoint
7 7 6 6 6 7 8 9 9 8 8 9 8 6 5 1 -3 -3 -3 -2 -2 -2 -2 -2 -0 1 1 1 -0 -4 -8 -10 -11 -12 -5 -12 -13 -7 -3 -6 -8 -7 -6
9 9 9 9 10 9 9 9 7 9 8 5 4 4 1 -3 -2 -1 -0 -0 -0 -1 -1 -0 1 1 -1 -4 -7 -9 -10 -12 -14 -12 -4 -6 -5 -3 -4 -5 -9 -9 -8
8 7 7 6 2 -0 -1 -0 -0 -1 0 2 1 -1 -2 -1 0 0 0 0 -0 0 0 -1 -3 -4 -7 -8 -10 -11 -13 -13 -12 -12 -4 -4 -6 -3 -4 -3 -6 -5 -6
6 6 1 -0 -0 -0 -2 -2 -2 -1 -1 -1 -1 -0 -0 -0 0 1 1 0 1 -1 -3 -6 -8 -9 -10 -11 -11 -12 -14 -12 -4 -6 -4 -4 -2 -2 -4 -5 -5 -6 -5
4 1 0 1 1 1 1 1 1 0 0 0 1 1 1 1 1 1 0 -2 -4 -7 -11 -12 -12 -12 -12 -9 -8 -13 -13 -10 -7 -3 -4 -6 -3 -3 -3 -5 -6 -6 -5
2 1 2 2 2 2 2 2 3 2 2 2 1 1 1 -0 -2 -3 -5 -7 -10 -12 -10 -8 -8 -8 -7 -6 -7 -10 -9 -7 -6 -5 -4 -3 -3 -4 -3 -4 -5 -4 -5
2 2 3 3 3 3 3 3 3 3 2 1 1 0 -1 -3 -4 -6 -7 -8 -10 -9 -7 -7 -6 -5 -5 -5 -7 -8 -6 -5 -5 -5 -4 -5 -6 -6 -6 -5 -4 -4 -4
3 3 3 3 3 4 4 3 3 2 1 1 -0 -2 -3 -4 -5 -6 -6 -6 -6 -6 -6 -6 -5 -4 -5 -6 -7 -8 -6 -6 -6 -6 -8 -8 -9 -9 -9 -6 -5 -5 -8
3 4 4 4 4 4 4 2 2 1 -0 -1 -3 -3 -4 -5 -5 -5 -5 -6 -6 -6 -5 -4 -3 -3 -4 -6 -7 -7 -7 -6 -7 -7 -8 -9 -10 -10 -9 -8 -6 -6 -7
4 4 4 5 4 3 2 1 -0 -1 -2 -2 -2 -4 -5 -5 -4 -5 -5 -6 -6 -5 -5 -4 -3 -3 -5 -5 -6 -5 -6 -5 -7 -9 -10 -10 -10 -9 -9 -9 -9 -7 -8
3 3 3 2 1 0 -0 -0 -1 -3 -3 -3 -4 -4 -4 -4 -4 -7 -10 -5 -5 -6 -7 -8 -5 -3 -5 -4 -5 -5 -5 -7 -8 -10 -10 -10 -10 -10 -10 -11 -10 -10 -10
2 1 0 0 0 -0 -2 -4 -4 -4 -6 -7 -5 -5 -8 -12 -15 -15 -12 -11 -12 -12 -10 -8 -4 -3 -4 -4 -3 -4 -8 -7 -10 -11 -10 -10 -10 -11 -11 -10 -10 -11 -10
1 1 0 -0 -2 -4 -6 -5 -4 -6 -6 -8 -9 -11 -13 -17 -14 -11 -10 -11 -13 -13 -11 -8 -4 -3 -3 -4 -4 -5 -8 -8 -10 -10 -9 -10 -11 -10 -9 -9 -10 -10 -10
1 -0 -2 -4 -5 -6 -6 -5 -7 -10 -12 -12 -12 -16 -15 -11 -10 -10 -10 -12 -12 -12 -12 -8 -5 -5 -5 -4 -5 -7 -7 -9 -9 -9 -10 -12 -11 -9 -9 -10 -10 -10 -10
-1 -3 -5 -5 -6 -6 -7 -10 -12 -12 -12 -14 -17 -15 -11 -11 -10 -10 -10 -11 -10 -11 -9 -6 -5 -7 -6 -5 -6 -7 -9 -9 -9 -11 -13 -14 -15 -16 -16 -11 -11 -10 -11
-2 -5 -6 -6 -7 -10 -11 -12 -11 -12 -15 -17 -16 -13 -12 -12 -11 -9 -8 -8 -8 -10 -5 -6 -7 -7 -6 -7 -9 -9 -8 -9 -11 -13 -14 -16 -18 -16 -15 -15 -14 -12 -12
-4 -6 -6 -6 -11 -12 -12 -11 -12 -15 -18 -18 -19 -18 -15 -11 -9 -7 -6 -7 -8 -8 -7 -8 -6 -8 -8 -8 -8 -8 -10 -12 -13 -14 -16 -18 -15 -13 -12 -12 -12 -12 -12
-5 -5 -5 -10 -12 -11 -11 -12 -15 -19 -20 -19 -20 -19 -16 -12 -7 -6 -6 -7 -7 -7 -6 -7 -8 -8 -8 -8 -9 -10 -12 -13 -14 -16 -17 -15 -12 -12 -12 -12 -11 -12 -11
-5 -5 -9 -12 -11 -11 -12 -16 -19 -19 -19 -20 -19 -18 -15 -11 -7 -6 -6 -6 -7 -7 -5 -6 -7 -7 -7 -9 -9 -12 -12 -13 -15 -16 -17 -14 -13 -13 -13 -12 -12 -12 -12
-4 -8 -11 -11 -11 -12 -15 -18 -19 -19 -18 -18 -18 -16 -14 -11 -7 -7 -7 -7 -8 -7 -7 -7 -7 -8 -9 -9 -11 -12 -12 -14 -14 -13 -13 -13 -13 -13 -13 -13 -13 -13 -12
-7 -11 -11 -10 -11 -13 -18 -18 -18 -17 -16 -16 -16 -15 -13 -11 -9 -8 -7 -8 -7 -6 -6 -7 -8 -8 -9 -11 -12 -12 -12 -12 -12 -12 -13 -13 -16 -14 -14 -14 -14 -13 -13
-10 -11 -10 -11 -13 -16 -17 -17 -16 -15 -15 -15 -14 -13 -12 -12 -10 -8 -8 -8 -7 -7 -7 -8 -8 -10 -11 -12 -11 -12 -12 -13 -14 -16 -14 -17 -21 -16 -15 -14 -14 -14 -14
-10 -10 -11 -12 -15 -17 -16 -16 -15 -14 -13 -13 -14 -12 -12 -11 -8 -9 -8 -8 -8 -7 -8 -9 -10 -11 -11 -11 -11 -12 -13 -13 -15 -18 -17 -24 -26 -16 -16 -18 -19 -15 -14
-10 -10 -12 -15 -17 -17 -16 -14 -13 -13 -13 -13 -11 -10 -10 -10 -8 -9 -8 -8 -8 -9 -9 -9 -10 -10 -11 -11 -12 -12 -13 -14 -15 -19 -18 -24 -30 -21 -19 -23 -23 -21 -23
-10 -13 -16 -17 -16 -16 -14 -14 -14 -13 -11 -10 -8 -8 -10 -9 -9 -9 -9 -9 -10 -11 -9 -10 -10 -10 -10 -10 -12 -12 -12 -13 -14 -18 -18 -21 -31 -28 -25 -24 -28 -30 -29
-13 -16 -17 -16 -15 -14 -14 -14 -13 -11 -8 -7 -7 -7 -8 -8 -8 -9 -10 -10 -11 -11 -10 -11 -11 -11 -11 -11 -12 -12 -12 -13 -14 -16 -19 -18 -27 -31 -31 -28 -29 -30 -31

GFSMW_850_dewp_051.txt.gz
Dewpoint
7 8 9 9 8 10 11 11 10 9 10 9 9 8 5 7 3 3 4 4 4 4 4 3 3 3 1 2 1 -1 -2 -3 -4 -4 -5 -4 -5 -7 -3 -3 -2 -2 -2
9 10 10 11 11 11 11 11 10 10 10 8 8 8 6 4 3 4 4 3 2 1 2 0 2 2 1 -1 -2 -1 -2 -4 -5 -5 -6 -5 -6 -8 -4 -3 -3 -3 -4
9 10 10 11 11 11 11 11 10 10 8 6 6 5 4 4 3 4 4 4 1 0 -1 0 1 -0 -2 -3 -2 -2 -3 -4 -5 -5 -6 -6 -6 -6 -6 -6 -6 -5 -5
8 9 9 10 10 9 8 7 7 7 6 5 4 4 2 2 4 4 4 3 3 3 1 0 -1 -1 -1 -1 -2 -3 -2 -3 -4 -5 -6 -6 -6 -5 -5 -5 -6 -7 -8
7 6 6 6 6 7 7 7 6 5 5 5 4 4 4 4 4 4 3 2 2 1 0 -1 -2 -1 -1 -2 -2 -2 -2 -3 -4 -4 -4 -4 -4 -4 -3 -4 -5 -4 -5
5 3 3 3 5 6 6 5 5 5 5 5 5 5 5 4 2 1 0 -1 -3 -4 -4 -3 -2 -2 -2 -2 -2 -3 -2 -2 -3 -3 -3 -3 -2 -3 -3 -3 -4 -5 -7
3 2 3 3 5 6 6 5 4 4 5 5 5 4 2 1 0 -0 -1 -2 -5 -5 -4 -3 -3 -3 -3 -3 -2 -1 -2 -2 -2 -2 -2 -2 -3 -4 -4 -4 -4 -6 -7
3 2 3 3 4 5 5 5 5 4 5 4 2 1 0 -0 -1 -1 -2 -3 -3 -3 -2 -2 -3 -3 -3 -3 -2 -2 -1 -1 -3 -2 -2 -2 -3 -4 -5 -6 -7 -7 -9
3 3 3 4 5 5 5 5 5 4 3 2 -0 -0 -1 -1 -1 -2 -2 -2 -2 -4 -5 -4 -4 -4 -5 -5 -4 -3 -2 -2 -3 -3 -3 -4 -4 -5 -7 -8 -8 -8 -8
3 3 4 5 5 5 5 6 5 2 0 -1 -1 -0 -1 -1 -2 -2 -4 -4 -5 -6 -7 -7 -7 -7 -6 -6 -6 -4 -3 -2 -3 -3 -4 -4 -6 -6 -7 -8 -8 -10 -11
3 4 4 5 6 6 6 4 2 -0 -1 -2 1 -0 -2 -4 -5 -6 -6 -7 -7 -7 -7 -7 -7 -6 -5 -6 -5 -4 -3 -4 -4 -5 -4 -5 -6 -7 -7 -8 -9 -11 -12
3 4 5 5 5 4 3 1 0 -0 -1 1 -4 -5 -6 -6 -7 -8 -8 -7 -7 -6 -6 -6 -6 -5 -6 -6 -5 -4 -4 -4 -4 -4 -4 -5 -6 -7 -8 -10 -11 -11 -11
4 4 4 3 2 2 1 1 -0 -2 1 -4 -8 -8 -8 -9 -9 -8 -7 -7 -6 -6 -5 -5 -5 -5 -4 -3 -6 -4 -4 -5 -5 -5 -5 -6 -6 -8 -10 -10 -10 -11 -12
3 3 2 2 2 1 1 -2 -3 -3 -6 -9 -9 -11 -10 -8 -8 -7 -7 -6 -6 -5 -5 -5 -5 -4 -5 -4 -4 -5 -5 -5 -5 -5 -6 -7 -10 -10 -9 -10 -11 -11 -11
2 2 2 1 1 0 -2 -3 -3 -6 -8 -8 -11 -11 -9 -8 -8 -7 -6 -6 -5 -5 -6 -5 -5 -4 -5 -4 -5 -5 -5 -6 -6 -7 -10 -11 -11 -11 -13 -12 -11 -10 -11
2 2 1 1 -0 -1 -4 -4 -6 -8 -8 -10 -11 -11 -10 -10 -9 -7 -6 -6 -6 -6 -5 -4 -5 -4 -4 -5 -6 -9 -7 -7 -8 -10 -10 -11 -11 -12 -12 -11 -10 -11 -11
2 2 1 -0 -2 -4 -5 -7 -7 -8 -9 -11 -12 -12 -11 -10 -9 -9 -8 -6 -6 -6 -4 -5 -5 -5 -4 -5 -6 -9 -8 -8 -9 -10 -10 -11 -12 -11 -11 -10 -12 -11 -11
1 1 -0 -2 -4 -6 -8 -7 -9 -10 -10 -11 -11 -11 -10 -9 -8 -7 -6 -6 -6 -6 -5 -5 -4 -7 -5 -5 -7 -8 -9 -9 -9 -9 -10 -10 -11 -11 -11 -12 -12 -11 -11
1 0 -1 -3 -5 -8 -8 -8 -9 -11 -12 -12 -11 -10 -9 -8 -7 -6 -6 -6 -6 -6 -6 -5 -5 -5 -5 -6 -8 -9 -9 -8 -8 -9 -10 -10 -11 -11 -13 -19 -12 -12 -11
1 -1 -2 -5 -8 -8 -8 -8 -11 -12 -12 -11 -10 -9 -7 -7 -6 -6 -5 -5 -6 -7 -5 -6 -5 -5 -6 -6 -8 -9 -12 -9 -9 -9 -10 -10 -10 -11 -14 -24 -13 -12 -12
-1 -3 -7 -8 -8 -6 -7 -9 -12 -12 -11 -9 -8 -7 -7 -7 -6 -7 -6 -6 -6 -6 -7 -7 -6 -7 -7 -7 -8 -9 -12 -10 -9 -9 -10 -10 -10 -14 -21 -24 -15 -13 -21
-6 -8 -8 -6 -6 -6 -8 -12 -13 -12 -10 -8 -7 -7 -6 -6 -7 -7 -7 -6 -6 -6 -7 -7 -8 -7 -8 -8 -8 -9 -11 -12 -12 -10 -10 -10 -14 -18 -22 -21 -16 -19 -15
-8 -7 -5 -3 -6 -7 -11 -11 -10 -9 -8 -7 -7 -7 -6 -7 -6 -7 -7 -6 -6 -7 -7 -8 -7 -8 -8 -8 -8 -9 -10 -10 -12 -11 -11 -13 -16 -16 -16 -13 -14 -14 -12
-5 -2 -2 -5 -9 -10 -11 -9 -8 -8 -8 -7 -7 -6 -6 -6 -7 -6 -7 -7 -7 -7 -8 -8 -8 -9 -8 -9 -8 -8 -9 -10 -10 -10 -10 -12 -12 -11 -12 -12 -12 -12 -12
-1 -3 -6 -8 -11 -9 -9 -9 -8 -8 -7 -7 -7 -6 -6 -6 -7 -6 -7 -7 -7 -7 -8 -8 -8 -9 -9 -9 -9 -9 -10 -10 -10 -11 -13 -11 -10 -11 -11 -12 -12 -12 -13
-2 -5 -8 -12 -12 -10 -10 -9 -9 -8 -7 -6 -6 -6 -6 -6 -7 -7 -7 -7 -7 -8 -8 -9 -10 -11 -11 -10 -10 -10 -11 -12 -12 -12 -11 -10 -10 -11 -11 -11 -12 -12 -13

GFSMW_850_dewp_054.txt.gz
Dewpoint
5 7 7 7 6 6 9 11 10 9 9 9 9 9 7 7 5 5 3 -0 3 3 2 2 2 2 1 0 -1 -1 -3 -4 -4 -5 -6 -5 -7 -5 -8 -4 -2 -2 -3
7 8 9 9 8 9 10 9 10 10 9 9 9 9 8 5 3 3 1 3 2 2 3 2 0 -1 -4 -6 -3 -3 -4 -4 -3 -4 -4 -4 -5 -6 -6 -6 -6 -6 -6
8 9 10 11 11 11 11 10 10 9 9 9 8 7 4 4 4 3 4 4 3 3 3 1 -1 -6 -7 -4 -2 -2 -2 -2 -4 -3 -4 -4 -4 -4 -5 -5 -5 -6 -6
8 9 11 11 11 10 10 10 9 9 8 6 5 5 4 3 3 4 5 4 4 3 1 -1 -4 -3 -1 -1 -2 -2 -3 -3 -2 -3 -3 -4 -4 -3 -3 -3 -4 -4 -5
8 9 11 9 10 10 10 9 7 7 6 5 4 4 3 4 4 4 4 3 1 0 -1 -1 -1 -1 -1 -1 -2 -2 -1 -1 -2 -3 -4 -4 -4 -4 -3 -2 -4 -6 -6
7 7 8 9 8 8 7 7 6 6 6 5 5 4 4 4 4 3 1 0 -1 -2 -4 -4 -3 -2 -2 -3 -3 -3 -2 -2 -3 -2 -2 -2 -3 -3 -3 -3 -4 -4 -6
6 5 5 6 7 6 6 6 5 5 5 5 6 5 5 4 2 0 0 -1 -2 -4 -4 -3 -3 -2 -3 -3 -3 -3 -2 -2 -5 -2 -2 -3 -3 -2 -3 -3 -4 -6 -7
4 3 3 4 6 6 6 5 5 5 5 6 5 3 2 0 0 -0 -1 -1 -2 -2 -2 -2 -3 -3 -3 -3 -4 -4 -4 -3 -3 -2 -2 -2 -2 -4 -4 -4 -6 -7 -8
4 2 3 4 5 6 6 5 5 5 5 4 3 2 1 1 1 -0 -1 -2 -2 -2 -5 -6 -7 -7 -7 -7 -6 -6 -5 -4 -3 -3 -2 -3 -4 -4 -4 -6 -7 -7 -7
3 3 3 4 5 5 6 6 5 4 4 3 1 -0 2 -0 -1 -1 -3 -4 -4 -6 -6 -7 -7 -7 -7 -6 -6 -6 -5 -4 -5 -4 -3 -4 -4 -4 -4 -6 -7 -8 -8
3 3 3 4 5 5 5 6 5 4 2 0 -1 1 1 0 -3 -5 -5 -6 -7 -6 -6 -6 -6 -6 -5 -5 -6 -5 -5 -5 -4 -4 -5 -6 -4 -4 -5 -6 -8 -9 -9
3 3 4 5 5 6 6 6 4 1 -0 -1 1 1 -3 -5 -6 -6 -8 -7 -7 -6 -6 -5 -5 -5 -5 -5 -5 -4 -4 -4 -5 -7 -5 -4 -5 -5 -7 -9 -9 -9 -9
2 3 4 5 6 5 5 3 1 0 -0 0 -5 -6 -7 -7 -8 -8 -8 -7 -7 -6 -5 -5 -5 -5 -5 -5 -8 -7 -6 -5 -6 -5 -6 -6 -8 -7 -8 -10 -10 -10 -12
2 4 4 5 4 4 3 1 1 0 -2 -6 -6 -8 -10 -10 -8 -7 -7 -6 -6 -5 -5 -5 -6 -5 -5 -6 -6 -6 -6 -6 -7 -6 -6 -7 -8 -10 -10 -11 -12 -13 -12
3 4 4 3 2 2 2 1 -1 -3 -5 -7 -8 -10 -10 -9 -8 -8 -8 -7 -5 -5 -5 -6 -5 -4 -7 -4 -5 -5 -7 -6 -5 -6 -7 -9 -10 -11 -11 -12 -12 -10 -10
3 3 3 2 2 2 1 -2 -2 -5 -7 -8 -10 -10 -11 -11 -11 -11 -10 -8 -7 -7 -6 -5 -5 -5 -6 -4 -4 -4 -5 -9 -8 -8 -9 -10 -11 -11 -12 -11 -10 -10 -11
2 2 2 2 1 0 -1 -3 -5 -7 -8 -9 -11 -11 -12 -11 -10 -9 -8 -8 -7 -6 -5 -5 -5 -7 -6 -6 -6 -5 -5 -9 -10 -9 -9 -9 -10 -11 -10 -11 -12 -14 -19
1 2 2 1 -0 -2 -4 -6 -7 -9 -9 -11 -11 -11 -10 -10 -9 -8 -7 -6 -6 -6 -6 -5 -6 -6 -6 -6 -5 -5 -7 -9 -10 -9 -8 -10 -9 -9 -10 -12 -13 -18 -18
1 1 1 -0 -2 -4 -7 -7 -8 -8 -11 -10 -9 -11 -10 -9 -7 -7 -6 -6 -6 -6 -6 -6 -6 -7 -5 -6 -5 -6 -8 -9 -11 -10 -11 -9 -9 -10 -11 -12 -16 -22 -17
1 1 -0 -2 -4 -7 -7 -8 -7 -8 -9 -11 -11 -13 -10 -7 -7 -6 -6 -6 -7 -7 -6 -6 -6 -8 -6 -6 -7 -7 -8 -9 -12 -13 -10 -10 -9 -10 -11 -13 -19 -22 -16
0 -0 -2 -6 -7 -7 -7 -6 -6 -10 -12 -11 -11 -12 -8 -7 -7 -7 -7 -7 -6 -6 -5 -6 -7 -8 -7 -6 -6 -7 -8 -9 -12 -10 -10 -10 -10 -10 -11 -18 -21 -18 -16
-4 -6 -7 -7 -6 -5 -5 -7 -9 -9 -11 -11 -12 -10 -7 -7 -8 -8 -6 -6 -6 -6 -6 -7 -8 -8 -9 -8 -7 -8 -9 -9 -10 -11 -12 -11 -10 -12 -16 -16 -16 -14 -14
-7 -7 -5 -4 -4 -4 -6 -9 -13 -13 -10 -12 -8 -7 -7 -6 -8 -9 -10 -6 -6 -6 -8 -9 -9 -9 -9 -9 -9 -8 -8 -9 -10 -11 -12 -12 -12 -13 -12 -13 -12 -12 -13
-4 -3 -3 -3 -5 -6 -9 -10 -9 -8 -8 -8 -8 -7 -7 -7 -7 -7 -8 -7 -6 -6 -6 -7 -7 -7 -7 -8 -10 -8 -9 -8 -9 -10 -10 -11 -12 -11 -11 -11 -11 -12 -12
-3 -2 -3 -4 -7 -9 -10 -11 -9 -8 -8 -8 -7 -7 -7 -6 -6 -6 -7 -7 -7 -7 -6 -6 -7 -7 -9 -11 -10 -9 -8 -8 -9 -10 -10 -11 -12 -10 -11 -12 -12 -12 -13
-3 -5 -6 -7 -10 -9 -10 -10 -9 -9 -8 -8 -9 -9 -8 -7 -7 -6 -7 -7 -7 -8 -8 -8 -8 -8 -8 -9 -10 -11 -10 -10 -10 -11 -11 -11 -11 -11 -11 -12 -12 -12 -13

GFSMW_850_dewp_060.txt.gz
Dewpoint
4 5 6 5 6 8 6 2 5 8 9 9 8 9 7 7 8 6 3 1 1 0 0 1 1 1 -0 -4 -8 -8 -10 -11 -9 -8 -5 -6 -6 -7 -6 -7 -8 -8 -8
7 7 6 7 8 9 9 8 8 9 9 10 7 7 8 8 8 6 4 3 2 1 2 2 1 -1 -4 -6 -6 -8 -10 -11 -6 -4 -3 -3 -5 -5 -6 -4 -5 -7 -7
4 5 7 7 8 9 9 9 9 10 10 10 9 8 7 6 5 4 3 1 2 3 3 2 -0 -1 -3 -6 -6 -6 -5 -4 -3 -2 -2 -2 -3 -3 -4 -6 -4 -5 -6
3 7 7 8 8 9 10 10 10 11 10 9 8 5 2 2 3 2 3 3 4 4 2 1 0 -1 -2 -5 -4 -3 -3 -3 -3 -3 -3 -3 -2 -3 -2 -3 -2 -3 -5
5 5 5 6 8 9 10 11 11 10 9 8 7 7 3 3 2 4 4 4 4 3 1 -1 -2 -2 -3 -3 -2 -2 -2 -3 -5 -4 -3 -2 -3 -3 -4 -2 -2 -2 -4
7 7 7 8 9 10 11 11 8 8 9 9 7 6 4 3 4 4 4 4 2 2 -1 -1 -3 -3 -3 -3 -2 -2 -4 -7 -5 -4 -4 -4 -3 -3 -3 -3 -2 -2 -4
8 8 9 9 10 9 10 7 8 9 9 6 7 6 5 4 4 4 5 4 2 -1 -2 -0 0 -3 -3 -3 -4 -7 -10 -11 -8 -7 -6 -3 -2 -2 -3 -3 -4 -2 -5
8 9 10 10 9 8 9 8 9 10 6 5 6 5 5 4 4 3 1 -0 -0 0 3 1 -2 -3 -3 -8 -14 -17 -17 -13 -9 -8 -4 -3 -3 -4 -4 -4 -3 -3 -4
9 10 10 9 8 9 9 9 10 7 5 5 5 5 5 4 4 2 2 2 3 1 -2 -3 -5 -6 -12 -15 -16 -17 -13 -8 -6 -5 -4 -4 -4 -4 -6 -4 -3 -3 -4
9 9 9 9 8 8 7 7 6 6 6 5 5 5 5 5 2 1 1 2 1 -3 -6 -6 -9 -10 -11 -12 -15 -11 -7 -6 -5 -6 -6 -4 -4 -3 -4 -4 -5 -5 -5
8 8 8 8 7 7 7 7 6 6 5 5 5 5 5 2 2 2 1 1 -6 -7 -8 -9 -8 -8 -9 -9 -12 -7 -6 -6 -6 -8 -10 -7 -5 -5 -5 -5 -4 -6 -7
6 6 6 6 6 5 5 5 5 4 4 5 5 4 2 2 2 -4 -1 -4 -6 -8 -8 -7 -7 -9 -7 -9 -6 -5 -5 -5 -5 -9 -10 -9 -6 -6 -6 -7 -7 -7 -9
5 5 5 5 4 4 5 5 5 5 5 4 3 2 3 -2 -5 -4 -4 -8 -8 -7 -7 -10 -10 -6 -7 -7 -5 -5 -5 -5 -7 -7 -8 -9 -7 -6 -7 -8 -9 -10 -10
6 4 4 4 5 5 6 6 5 5 3 3 3 -2 -5 -6 -4 -6 -8 -9 -10 -12 -11 -12 -8 -7 -6 -6 -5 -5 -5 -7 -5 -6 -6 -6 -6 -7 -8 -9 -10 -10 -12
6 5 4 5 6 6 6 5 4 4 3 1 -4 -6 -7 -7 -6 -7 -12 -13 -8 -7 -13 -10 -8 -6 -6 -5 -5 -5 -6 -7 -6 -5 -5 -6 -7 -8 -8 -9 -10 -11 -11
5 4 5 6 6 6 6 6 5 2 -1 -2 -5 -8 -8 -7 -10 -10 -9 -4 -5 -13 -14 -8 -7 -6 -5 -5 -5 -6 -8 -9 -7 -7 -5 -7 -7 -8 -9 -9 -10 -10 -10
4 5 5 6 6 6 6 4 2 0 -2 -5 -8 -9 -11 -10 -7 -3 -4 -9 -12 -11 -9 -7 -6 -6 -6 -5 -6 -6 -6 -8 -7 -6 -7 -9 -9 -9 -9 -9 -9 -10 -11
5 5 5 5 5 4 2 1 -1 -3 -5 -7 -9 -10 -7 -3 -5 -10 -11 -13 -11 -10 -9 -9 -11 -11 -9 -6 -6 -6 -7 -8 -6 -7 -8 -8 -9 -10 -10 -9 -10 -11 -12
4 4 3 3 2 1 0 -2 -5 -7 -8 -9 -9 -5 -4 -6 -9 -10 -13 -11 -9 -8 -9 -8 -9 -8 -7 -6 -6 -7 -9 -6 -6 -7 -7 -8 -10 -11 -12 -11 -11 -12 -13
2 2 2 2 1 -2 -5 -6 -9 -10 -9 -7 -5 -2 -9 -9 -10 -12 -12 -10 -10 -9 -8 -7 -7 -6 -6 -6 -6 -9 -9 -8 -7 -7 -8 -9 -11 -12 -11 -12 -11 -12 -15
0 -0 -2 -3 -6 -8 -8 -8 -8 -7 -4 -3 -3 -8 -8 -10 -11 -12 -10 -10 -11 -12 -12 -12 -7 -6 -6 -6 -9 -9 -9 -9 -7 -8 -8 -8 -10 -11 -12 -12 -12 -14 -14
-4 -5 -5 -6 -7 -7 -7 -6 -5 -2 -1 -7 -10 -14 -15 -15 -13 -11 -10 -11 -12 -12 -11 -11 -12 -8 -6 -7 -8 -9 -10 -10 -9 -10 -10 -9 -8 -10 -12 -13 -13 -13 -12
-5 -5 -5 -6 -6 -6 -4 -0 -4 -9 -12 -15 -16 -15 -14 -13 -12 -11 -11 -11 -12 -11 -11 -12 -13 -12 -10 -7 -7 -7 -7 -8 -8 -9 -10 -9 -9 -9 -11 -11 -11 -12 -12
-6 -6 -5 -4 -3 -3 -7 -10 -12 -13 -13 -14 -13 -12 -11 -12 -11 -10 -10 -11 -11 -9 -9 -10 -12 -11 -10 -9 -9 -8 -7 -8 -8 -9 -10 -9 -8 -9 -10 -10 -11 -12 -11
-4 -3 -3 -6 -9 -10 -11 -10 -10 -10 -10 -10 -10 -9 -9 -9 -8 -8 -8 -8 -9 -9 -8 -8 -9 -9 -10 -10 -9 -8 -8 -9 -8 -9 -10 -11 -9 -9 -10 -11 -11 -12 -11
-5 -7 -8 -8 -10 -10 -9 -9 -9 -9 -9 -8 -8 -7 -7 -7 -7 -6 -5 -6 -6 -8 -8 -7 -7 -8 -9 -10 -10 -9 -8 -8 -8 -9 -9 -10 -10 -10 -11 -11 -12 -12 -11

GFSMW_850_dewp_063.txt.gz
Dewpoint
2 6 8 8 9 10 9 7 1 4 7 8 9 10 10 9 7 6 5 2 0 -0 0 0 1 1 -1 -3 -5 -6 -8 -8 -7 -6 -7 -7 -7 -5 -6 -5 -6 -9 -7
6 4 7 9 9 9 7 4 1 3 8 9 9 9 9 8 7 7 5 4 2 1 1 2 2 0 -1 -2 -3 -6 -7 -6 -5 -4 -4 -4 -6 -6 -5 -4 -4 -5 -5
5 3 6 9 9 8 7 2 1 5 7 9 10 9 9 7 8 7 6 4 3 1 2 3 0 -1 -2 -2 -3 -4 -4 -4 -3 -3 -3 -3 -4 -3 -6 -5 -5 -5 -6
4 3 6 7 6 6 8 8 6 7 9 10 10 9 8 8 7 5 4 2 2 3 4 1 -1 -1 -2 -2 -2 -3 -3 -3 -3 -4 -5 -4 -2 -2 -3 -4 -3 -5 -5
5 5 4 4 5 6 7 9 9 9 10 10 10 9 7 4 3 3 3 3 4 4 2 0 -1 -1 -2 -2 -2 -3 -2 -3 -5 -6 -6 -5 -4 -3 -2 -2 -3 -3 -5
4 4 4 4 4 5 7 9 9 10 10 10 10 9 6 3 3 3 4 4 4 4 2 1 -1 -0 3 -0 -2 -3 -5 -9 -12 -12 -10 -8 -6 -3 -2 -2 -3 -4 -3
5 4 4 5 5 7 9 9 10 10 10 10 9 8 7 4 3 3 4 4 4 3 3 -1 2 3 -1 -3 -4 -8 -15 -17 -16 -13 -10 -9 -5 -3 -3 -4 -4 -5 -5
6 7 7 8 8 9 8 9 9 9 8 9 9 7 6 5 4 4 4 5 3 3 1 3 2 -2 -3 -6 -11 -14 -16 -16 -12 -8 -6 -5 -5 -4 -4 -3 -4 -5 -4
6 6 8 7 9 8 8 8 8 8 9 9 7 6 7 6 5 5 3 3 2 3 2 -2 -4 -5 -8 -10 -10 -13 -14 -11 -8 -7 -6 -6 -10 -5 -3 -3 -4 -3 -5
7 7 8 8 9 9 8 8 7 8 8 7 6 6 6 5 4 4 2 3 3 1 -5 -5 -6 -8 -8 -9 -12 -11 -12 -8 -7 -6 -5 -6 -11 -10 -6 -5 -5 -5 -5
8 7 8 9 9 8 7 8 8 8 8 6 5 5 5 4 3 2 2 3 3 -3 -5 -7 -8 -8 -11 -12 -9 -11 -10 -7 -5 -5 -6 -9 -10 -9 -8 -6 -6 -7 -7
7 7 8 10 9 8 8 8 8 8 7 6 5 5 4 3 1 2 4 -2 -4 -6 -8 -8 -8 -12 -11 -9 -10 -9 -7 -5 -5 -5 -7 -8 -8 -8 -7 -6 -6 -7 -8
8 9 9 9 9 8 8 7 6 6 6 5 3 2 2 2 3 1 -3 -2 -6 -8 -8 -15 -10 -9 -10 -8 -7 -6 -5 -4 -5 -6 -8 -7 -7 -7 -7 -6 -7 -8 -10
6 7 8 9 9 8 7 6 6 5 5 4 3 3 3 4 2 -4 -5 -7 -8 -14 -14 -9 -9 -11 -10 -8 -6 -5 -4 -5 -5 -8 -8 -6 -5 -6 -6 -6 -8 -8 -9
6 6 7 8 8 8 7 6 6 5 6 4 4 4 3 -1 -5 -6 -7 -12 -12 -8 -6 -6 -13 -14 -10 -8 -6 -5 -5 -5 -6 -7 -8 -7 -7 -7 -6 -7 -8 -9 -10
5 6 5 6 6 7 7 6 6 6 5 4 3 1 -5 -6 -8 -11 -9 -8 -4 -4 -10 -16 -15 -12 -10 -9 -8 -6 -5 -6 -6 -7 -8 -8 -6 -7 -8 -8 -9 -9 -9
4 5 5 5 5 6 6 6 6 4 4 2 -3 -7 -9 -10 -10 -6 -3 -3 -10 -16 -17 -14 -12 -11 -11 -11 -11 -7 -6 -6 -7 -8 -7 -6 -8 -9 -8 -8 -9 -9 -9
4 5 5 6 6 6 6 5 5 3 -2 -6 -8 -10 -8 -4 -3 -3 -6 -12 -18 -17 -14 -13 -13 -13 -13 -11 -9 -7 -6 -6 -7 -9 -6 -7 -8 -8 -8 -9 -9 -9 -10
4 5 6 6 6 6 6 5 -0 -4 -7 -9 -9 -5 -5 -1 -1 -9 -11 -16 -18 -14 -13 -14 -15 -15 -14 -8 -6 -5 -6 -7 -9 -9 -7 -7 -7 -8 -10 -11 -10 -10 -11
5 5 6 6 5 3 2 -1 -6 -8 -9 -8 -7 -5 -2 -0 -9 -13 -17 -18 -15 -13 -13 -14 -14 -13 -14 -11 -6 -6 -6 -9 -10 -9 -8 -7 -8 -8 -9 -11 -11 -11 -12
3 3 3 2 1 -2 -4 -6 -8 -9 -7 -4 -1 -0 -7 -10 -16 -18 -17 -15 -13 -13 -14 -14 -13 -12 -13 -13 -9 -6 -6 -8 -10 -9 -9 -8 -9 -8 -8 -10 -11 -12 -12
0 -0 -1 -3 -7 -8 -8 -7 -5 -3 -1 -1 -4 -10 -15 -16 -16 -15 -14 -14 -13 -13 -13 -13 -12 -12 -13 -13 -13 -10 -7 -7 -8 -9 -9 -9 -9 -8 -9 -9 -11 -12 -11
-5 -5 -5 -7 -7 -7 -5 -2 -1 -2 -9 -14 -15 -14 -14 -13 -12 -11 -11 -10 -10 -10 -10 -10 -10 -10 -11 -11 -11 -11 -10 -8 -7 -7 -8 -8 -8 -8 -9 -9 -10 -11 -10
-6 -6 -6 -5 -4 -5 -5 -8 -11 -11 -12 -12 -11 -10 -9 -9 -9 -8 -8 -8 -8 -7 -7 -6 -7 -8 -8 -9 -9 -10 -10 -9 -9 -9 -8 -9 -9 -9 -8 -9 -9 -10 -10
-5 -4 -4 -5 -5 -9 -11 -10 -11 -11 -12 -12 -11 -10 -9 -8 -8 -7 -7 -6 -6 -6 -5 -5 -5 -5 -6 -7 -7 -8 -10 -10 -9 -9 -9 -8 -9 -10 -10 -10 -9 -10 -11
-4 -5 -5 -8 -10 -10 -10 -10 -11 -11 -11 -11 -11 -11 -12 -12 -13 -14 -16 -16 -16 -15 -11 -8 -6 -6 -5 -5 -6 -6 -8 -8 -8 -8 -9 -9 -9 -9 -10 -10 -10 -11 -11